Terminal Aerodrome Forecast
Issued by NWS

Home | Current Version | Previous Version | Text Only | Print | Product List | Glossary On
Versions: 1 2 3 4 5 6 7 8 9 10 11 12 13 14 15 16 17 18 19 20 21 22 23 24 25 26 27 28
962
FTUS44 KFWD 080254 AAA
TAFAFW
TAF AMD
KAFW 080254Z 0803/0824 34007KT P6SM FEW300
     FM080500 34018KT P6SM FEW300
     FM081700 34023G33KT P6SM FEW300=

USA.gov is the U.S. government's official web portal to all federal, state and local government web resources and services.